Location: Anaheim
(33.8350°N, 117.9140°W)
Time: 05:20:43
(UTC-08:00)

Amateur Radio Satellites - All Passes

Search period start: 24 January 2017 04:50
Search period end: 25 January 2017 04:50
Location: Anaheim, 33.8350°N, 117.9140°W

Satellite Date Start Highest point End Downlink Frequencies (MHz)
Time Altitude Azimuth
DANDE 24 Jan 04:56:10 04:57:01 10° 299° (WNW) 04:57:54 436.750
ISS 24 Jan 04:56:49 04:58:12 12° 234° (SW) 04:59:36 145.825
PHONESAT 2.4 24 Jan 05:10:22 05:12:19 27° 211° (SSW) 05:14:15 2401.200-2431.200
GOMX 1 24 Jan 05:24:03 05:28:20 73° 101° (ESE) 05:32:27 467.674
CUTE-I 24 Jan 05:29:50 05:34:32 31° 97° (E) 05:39:13 437.470
DOVE 4 24 Jan 05:41:27 05:45:19 37° 98° (E) 05:49:11 437.250
SO-50 24 Jan 05:42:14 05:46:28 34° 113° (ESE) 05:50:42 436.795
BRITE-PL 24 Jan 05:42:46 05:46:29 24° 291° (WNW) 05:50:00 437.365/2234.400
NOAA 15 24 Jan 06:07:33 06:12:53 78° 103° (ESE) 06:18:09 137.62
Cubesat XI-IV 24 Jan 06:13:56 06:19:19 85° 105° (ESE) 06:24:40 437.490
STRAND 1 24 Jan 06:15:09 06:20:09 60° 74° (ENE) 06:25:10 437.568
Cosmos 2499 24 Jan 06:17:14 06:24:20 81° 84° (E) 06:31:29 435.465 / 435.565
HORYU 2 24 Jan 06:18:38 06:22:11 24° 290° (WNW) 06:25:44 437.375
O/OREOS (USA 219) 24 Jan 06:22:45 06:25:19 15° 300° (WNW) 06:27:54 437.305
LilacSat-2 24 Jan 06:24:30 06:28:12 44° 285° (WNW) 06:31:54 437.200
GONETS M04 24 Jan 06:28:04 06:36:56 76° 83° (E) 06:45:46
RS-15 24 Jan 06:36:15 06:47:24 37° 46° (NE) 06:58:06 29.354- 29.394
CINEMA 3 24 Jan 06:38:37 06:42:35 37° 99° (E) 06:46:41 145.822/145.860
CUTE 1.7 + AOD 2 24 Jan 06:45:23 06:48:48 23° 96° (E) 06:52:11 437.475
NOAA 18 24 Jan 06:53:08 06:58:36 80° 285° (WNW) 07:04:03 137.9125
CUBEBUG 2 24 Jan 07:05:17 07:08:06 16° 94° (E) 07:10:58 437.445
CUTE-I 24 Jan 07:09:57 07:14:25 28° 291° (WNW) 07:18:53 437.470
COMPASS 1 24 Jan 07:14:33 07:17:43 21° 95° (E) 07:20:51 437.405
CANX-2 24 Jan 07:14:52 07:19:08 64° 100° (E) 07:23:22 2200.000
SEEDS 24 Jan 07:16:59 07:20:54 35° 98° (E) 07:24:46 437.485
DOVE 4 24 Jan 07:20:40 07:22:40 13° 292° (WNW) 07:24:40 437.250
AAUSAT CUBESAT 2 24 Jan 07:21:31 07:24:27 18° 94° (E) 07:27:21 437.432
HO-68 24 Jan 07:21:48 07:28:54 63° 102° (ESE) 07:35:58 435.675
SO-50 24 Jan 07:23:11 07:26:58 23° 307° (NW) 07:30:43 436.795
UWE-3 24 Jan 07:24:26 07:27:21 17° 94° (E) 07:30:17 435.000/436.395/437.385
ZACube-1 24 Jan 07:34:17 07:36:05 12° 93° (E) 07:37:54 437.345
PRISM 24 Jan 07:42:57 07:46:08 21° 70° (ENE) 07:49:19 437.425
PCSat 24 Jan 07:47:24 07:51:01 18° 52° (NE) 07:54:35 145.827
NOAA 15 24 Jan 07:50:18 07:51:54 11° 298° (WNW) 07:53:32 137.62
STRAND 1 24 Jan 07:57:36 07:59:39 12° 268° (W) 08:01:43 437.568
Cubesat XI-IV 24 Jan 07:57:46 07:58:36 10° 298° (WNW) 07:59:25 437.490
Oscar 11 24 Jan 08:01:12 08:04:29 20° 95° (E) 08:07:44 145.826/435.025
Cosmos 2499 24 Jan 08:13:49 08:16:26 12° 279° (W) 08:19:04 435.465 / 435.565
CINEMA 3 24 Jan 08:16:56 08:19:26 15° 291° (WNW) 08:21:58 145.822/145.860
ANTELSAT 24 Jan 08:19:51 08:22:28 16° 68° (ENE) 08:25:04 437.575/2403.000
CUTE 1.7 + AOD 2 24 Jan 08:21:04 08:24:30 24° 289° (WNW) 08:27:55 437.475
GONETS M04 24 Jan 08:27:11 08:32:41 18° 279° (W) 08:38:12
CUBEBUG 2 24 Jan 08:40:41 08:44:46 36° 286° (WNW) 08:48:55 437.445
FUNcube-1 24 Jan 08:42:22 08:46:50 75° 102° (ESE) 08:51:20 145.935
RS-15 24 Jan 08:48:35 09:00:38 66° 248° (WSW) 09:12:09 29.354- 29.394
COMPASS 1 24 Jan 08:49:44 08:53:10 25° 289° (WNW) 08:56:36 437.405
SEEDS 24 Jan 08:53:43 08:56:14 16° 292° (WNW) 08:58:45 437.485
AAUSAT CUBESAT 2 24 Jan 08:56:20 08:59:53 27° 288° (WNW) 09:03:24 437.432
UWE-3 24 Jan 08:59:46 09:03:49 36° 287° (WNW) 09:07:59 435.000/436.395/437.385
ZACube-1 24 Jan 09:08:14 09:12:32 49° 285° (WNW) 09:16:54 437.345
JAS-2 24 Jan 09:09:54 09:14:05 23° 65° (ENE) 09:18:33 435.910
HO-68 24 Jan 09:10:49 09:16:01 22° 298° (WNW) 09:21:11 435.675
PRISM 24 Jan 09:17:51 09:21:15 24° 263° (W) 09:24:40 437.425
UNISAT 6 24 Jan 09:26:12 09:30:27 77° 258° (WSW) 09:34:43 437.425
PCSat 24 Jan 09:29:27 09:34:47 59° 248° (WSW) 09:40:05 145.827
DELFI C3 24 Jan 09:33:37 09:37:37 87° 107° (ESE) 09:41:33 145.870
Oscar 11 24 Jan 09:36:51 09:40:33 27° 289° (WNW) 09:44:14 145.826/435.025
TIGRISAT 24 Jan 09:38:13 09:42:24 59° 260° (W) 09:46:35 435.000
ANTELSAT 24 Jan 09:55:01 09:58:51 34° 262° (W) 10:02:45 437.575/2403.000
QB50P1 24 Jan 09:59:48 10:02:48 19° 69° (ENE) 10:05:47 145.935-145.965
POLYITAN 1 24 Jan 10:05:08 10:08:24 22° 70° (ENE) 10:11:39 437.675
QB50P2 24 Jan 10:06:21 10:09:47 25° 71° (ENE) 10:13:14 145.880/145.840
HUMSAT D 24 Jan 10:15:26 10:19:39 56° 285° (WNW) 10:23:51 437.325/437.525
POPSAT HIP 1 24 Jan 10:26:10 10:30:03 39° 73° (ENE) 10:33:57 437.405
DUCHIFAT 1 24 Jan 10:31:15 10:35:06 38° 73° (ENE) 10:38:58 145.980
NANOSAT C BR1 24 Jan 10:38:59 10:43:02 53° 75° (ENE) 10:47:07 145.865
ESTCUBE 1 24 Jan 10:44:59 10:49:02 32° 98° (E) 10:53:04 437.505/2401.250
BY70-1 24 Jan 10:46:46 10:49:50 75° 103° (ESE) 10:52:37 436.1900
Cosmos 2491 24 Jan 10:48:00 10:51:04 12° 64° (ENE) 10:54:08 435.465 / 435.565
BUGSAT 1 24 Jan 10:48:25 10:51:20 20° 70° (ENE) 10:54:16 437.445
JAS-2 24 Jan 10:53:55 10:58:50 38° 263° (W) 11:04:13 435.910
RS-15 24 Jan 11:10:03 11:10:34 10° 266° (W) 11:11:03 29.354- 29.394
CUBEBUG 1 24 Jan 11:11:22 11:15:20 35° 98° (E) 11:19:17 437.445
AO-85 24 Jan 11:25:44 11:29:40 25° 112° (ESE) 11:33:25 145.980
JUGNU 24 Jan 11:32:52 11:36:15 16° 169° (S) 11:39:39 437.505
QB50P1 24 Jan 11:34:47 11:38:21 27° 263° (W) 11:41:56 145.935-145.965
50 SAT 24 Jan 11:35:52 11:38:55 26° 98° (E) 11:41:55 437.505
AISAT 24 Jan 11:39:40 11:43:54 48° 100° (E) 11:48:07 437.250
POLYITAN 1 24 Jan 11:40:43 11:44:02 23° 264° (W) 11:47:24 437.675
QB50P2 24 Jan 11:42:20 11:45:29 21° 264° (W) 11:48:40 145.880/145.840
Gurwin Techsat 1B 24 Jan 11:44:54 11:47:25 14° 64° (ENE) 11:49:56 435.225
POPSAT HIP 1 24 Jan 12:03:58 12:05:57 13° 267° (W) 12:07:56 437.405
SPROUT 24 Jan 12:07:07 12:11:22 74° 102° (ESE) 12:15:36 437.525
DUCHIFAT 1 24 Jan 12:08:53 12:10:53 13° 266° (W) 12:12:54 145.980
VELOX 1 24 Jan 12:12:40 12:17:03 71° 285° (WNW) 12:21:23 145.980
CUSAT 1 24 Jan 12:15:33 12:21:31 23° 68° (ENE) 12:26:57 437.405
UKube-1 24 Jan 12:19:35 12:23:40 41° 99° (E) 12:27:42 .
AIST 1 24 Jan 12:21:31 12:24:59 23° 89° (E) 12:28:27
ESTCUBE 1 24 Jan 12:22:22 12:25:34 19° 291° (WNW) 12:28:45 437.505/2401.250
BUGSAT 1 24 Jan 12:23:11 12:26:32 25° 263° (W) 12:29:52 437.445
DX 1 24 Jan 12:29:30 12:33:51 81° 103° (ESE) 12:38:10 434.975-435.025
Oscar 19 24 Jan 12:30:27 12:35:38 77° 75° (ENE) 12:40:50 437.125/150
YUBILEINY 24 Jan 12:40:25 12:48:14 37° 86° (E) 12:56:03 435.215
Cosmos 2491 24 Jan 12:40:30 12:49:21 77° 84° (E) 12:58:09 435.465 / 435.565
CUBEBUG 1 24 Jan 12:48:40 12:51:17 16° 292° (WNW) 12:53:54 437.445
Cosmos 2504 24 Jan 12:57:58 13:04:30 25° 85° (E) 13:10:45 435.465 / 435.565
AO-85 24 Jan 13:05:50 13:09:59 29° 304° (NW) 13:13:52 145.980
50 SAT 24 Jan 13:10:03 13:11:49 13° 291° (WNW) 13:13:36 437.505
SRMSAT 24 Jan 13:12:01 13:14:17 12° 165° (SSE) 13:16:34 437.500
AISAT 24 Jan 13:18:02 13:19:54 13° 294° (WNW) 13:21:45 437.250
TISAT 1 24 Jan 13:18:41 13:22:50 62° 101° (E) 13:26:59 437.305
JUGNU 24 Jan 13:20:24 13:24:34 20° 179° (S) 13:28:46 437.505
Gurwin Techsat 1B 24 Jan 13:21:29 13:26:45 65° 258° (WSW) 13:32:02 435.225
ITAMSAT 1 24 Jan 13:24:43 13:28:48 24° 68° (ENE) 13:32:53 435.822/435.867
AO-7 24 Jan 13:37:36 13:45:00 37° 63° (ENE) 13:52:25 29.400- 29.500
DANDE 24 Jan 13:49:18 13:57:12 48° 77° (ENE) 14:04:59 436.750
CUSAT 1 24 Jan 13:56:20 14:04:03 62° 267° (W) 14:10:38 437.405
UKube-1 24 Jan 13:57:03 13:59:18 14° 293° (WNW) 14:01:32 .
AIST 1 24 Jan 13:59:03 14:02:27 22° 283° (WNW) 14:05:50
ITUPSAT 1 24 Jan 14:04:26 14:08:48 34° 98° (E) 14:13:08 437.325
BEESAT 2 24 Jan 14:07:52 14:09:53 14° 108° (ESE) 14:11:56 435.950
SO-50 24 Jan 14:18:56 14:20:37 12° 46° (NE) 14:22:17 436.795
BEESAT 24 Jan 14:35:33 14:40:22 79° 104° (ESE) 14:45:08 436.000
YUBILEINY 24 Jan 14:36:39 14:44:48 41° 283° (WNW) 14:53:02 435.215
SWISSCUBE 24 Jan 14:37:41 14:42:31 87° 284° (WNW) 14:47:19 437.505
Cosmos 2491 24 Jan 14:39:41 14:45:06 18° 280° (W) 14:50:32 435.465 / 435.565
BEESAT 3 24 Jan 14:48:12 14:52:03 65° 299° (WNW) 14:55:57 437.485
Cosmos 2504 24 Jan 14:48:48 14:57:18 59° 279° (W) 15:05:20 435.465 / 435.565
O/OREOS (USA 219) 24 Jan 14:55:09 14:59:28 43° 67° (ENE) 15:03:46 437.305
SRMSAT 24 Jan 14:58:35 15:02:46 20° 174° (S) 15:06:56 437.500
ITAMSAT 1 24 Jan 15:03:24 15:08:02 33° 262° (W) 15:12:42 435.822/435.867
JUGNU 24 Jan 15:09:15 15:12:55 17° 189° (S) 15:16:34 437.505
BRITE-PL 24 Jan 15:10:08 15:14:38 25° 69° (ENE) 15:19:04 437.365/2234.400
MOZHAYETS 4 24 Jan 15:26:40 15:31:21 86° 103° (ESE) 15:35:59
AO-7 24 Jan 15:29:38 15:37:29 45° 259° (W) 15:45:25 29.400- 29.500
DANDE 24 Jan 15:32:25 15:39:38 35° 272° (W) 15:46:44 436.750
KKS-1 24 Jan 15:32:38 15:36:20 26° 97° (E) 15:40:02 437.445
HORYU 2 24 Jan 15:37:23 15:39:57 15° 67° (ENE) 15:42:31 437.375
ITUPSAT 1 24 Jan 15:42:48 15:46:22 21° 292° (WNW) 15:49:55 437.325
BEESAT 2 24 Jan 15:43:38 15:47:17 37° 303° (WNW) 15:51:00 435.950
SO-50 24 Jan 15:57:04 16:01:33 71° 243° (WSW) 16:05:58 436.795
M-CUBED/EXP-1 PRIME 24 Jan 16:07:13 16:10:26 62° 105° (ESE) 16:13:40 437.505
STARS 24 Jan 16:12:18 16:16:13 32° 98° (E) 16:20:07 437.465
CUBESAT XI-V 24 Jan 16:25:17 16:29:51 51° 100° (E) 16:34:20 437.345
GOMX 1 24 Jan 16:27:01 16:32:14 54° 75° (ENE) 16:37:12 467.674
O/OREOS (USA 219) 24 Jan 16:36:09 16:38:25 14° 261° (W) 16:40:41 437.305
NOAA 18 24 Jan 16:37:54 16:40:58 15° 63° (ENE) 16:44:01 137.9125
AUBIESAT-1 24 Jan 16:39:45 16:42:57 52° 289° (WNW) 16:46:11 437.475
DOVE 4 24 Jan 16:42:48 16:46:59 28° 72° (ENE) 16:50:58 437.250
SRMSAT 24 Jan 16:47:02 16:51:17 20° 185° (S) 16:55:32 437.500
BRITE-PL 24 Jan 16:47:30 16:52:48 40° 262° (W) 16:58:02 437.365/2234.400
AIST 2 24 Jan 16:47:50 16:50:02 14° 108° (ESE) 16:52:16 435.215
CUTE-I 24 Jan 16:47:53 16:52:38 35° 70° (ENE) 16:57:24 437.470
LilacSat-2 24 Jan 17:02:14 17:05:51 46° 75° (ENE) 17:09:29 437.200
KKS-1 24 Jan 17:09:16 17:12:44 23° 291° (WNW) 17:16:10 437.445
HORYU 2 24 Jan 17:12:00 17:16:07 39° 261° (W) 17:20:16 437.375
NOAA 15 24 Jan 17:23:34 17:28:51 84° 76° (ENE) 17:34:11 137.62
Cubesat XI-IV 24 Jan 17:32:00 17:37:19 86° 253° (WSW) 17:42:40 437.490
GONETS M04 24 Jan 17:32:10 17:36:51 16° 79° (E) 17:41:33
CUTE 1.7 + AOD 2 24 Jan 17:36:48 17:37:34 10° 66° (ENE) 17:38:22 437.475
CINEMA 3 24 Jan 17:37:12 17:40:30 21° 71° (ENE) 17:43:43 145.822/145.860
HO-68 24 Jan 17:46:41 17:52:49 31° 65° (ENE) 17:58:57 435.675
STARS 24 Jan 17:49:17 17:52:18 18° 292° (WNW) 17:55:18 437.465
CANX-2 24 Jan 18:03:59 18:07:34 27° 72° (ENE) 18:11:10 2200.000
CUBESAT XI-V 24 Jan 18:04:30 18:06:42 13° 294° (WNW) 18:08:55 437.345
SEEDS 24 Jan 18:05:54 18:08:26 16° 68° (ENE) 18:10:58 437.485
GOMX 1 24 Jan 18:07:24 18:10:27 15° 267° (W) 18:13:25 467.674
NOAA 18 24 Jan 18:15:37 18:21:03 62° 258° (WSW) 18:26:29 137.9125
DOVE 4 24 Jan 18:20:33 18:24:34 24° 263° (W) 18:28:25 437.250
AIST 2 24 Jan 18:24:16 18:28:06 39° 303° (WNW) 18:32:02 435.215
CUTE-I 24 Jan 18:28:28 18:32:40 24° 264° (W) 18:36:54 437.470
STRAND 1 24 Jan 18:29:59 18:34:23 28° 97° (E) 18:38:47 437.568
SRMSAT 24 Jan 18:37:00 18:39:46 13° 194° (SSW) 18:42:32 437.500
Cosmos 2499 24 Jan 18:47:49 18:56:14 76° 93° (E) 19:04:01 435.465 / 435.565
Oscar 11 24 Jan 18:55:08 18:55:28 10° 65° (ENE) 18:55:48 145.826/435.025
CUTE 1.7 + AOD 2 24 Jan 19:08:42 19:12:52 55° 260° (W) 19:17:04 437.475
CINEMA 3 24 Jan 19:13:51 19:17:29 25° 263° (W) 19:21:02 145.822/145.860
GONETS M04 24 Jan 19:23:44 19:32:26 84° 276° (W) 19:41:15
HO-68 24 Jan 19:33:30 19:40:15 43° 260° (W) 19:47:03 435.675
FUNcube-1 24 Jan 19:34:21 19:38:01 32° 73° (ENE) 19:41:45 145.935
CUBEBUG 2 24 Jan 19:34:37 19:38:45 71° 259° (W) 19:42:53 437.445
COMPASS 1 24 Jan 19:35:22 19:39:32 64° 260° (W) 19:43:43 437.405
SEEDS 24 Jan 19:39:56 19:43:47 35° 262° (W) 19:47:41 437.485
CANX-2 24 Jan 19:40:14 19:43:21 20° 265° (W) 19:46:30 2200.000
AAUSAT CUBESAT 2 24 Jan 19:41:31 19:45:40 73° 260° (W) 19:49:52 437.432
UWE-3 24 Jan 19:52:30 19:56:37 72° 258° (WSW) 20:00:46 435.000/436.395/437.385
ISS 24 Jan 19:55:50 19:59:04 62° 318° (NW) 20:02:18 145.825
ZACube-1 24 Jan 19:59:54 20:04:00 77° 78° (ENE) 20:08:10 437.345
STRAND 1 24 Jan 20:09:05 20:13:26 28° 291° (WNW) 20:17:47 437.568
DELFI C3 24 Jan 20:15:27 20:18:52 27° 72° (ENE) 20:22:18 145.870
Oscar 11 24 Jan 20:26:47 20:31:01 59° 259° (W) 20:35:19 145.826/435.025
Cosmos 2499 24 Jan 20:44:41 20:49:54 18° 289° (WNW) 20:54:56 435.465 / 435.565
RS-15 24 Jan 20:55:48 21:05:16 30° 103° (ESE) 21:15:00 29.354- 29.394
PRISM 24 Jan 21:02:11 21:06:14 58° 101° (E) 21:10:13 437.425
HUMSAT D 24 Jan 21:02:22 21:06:23 56° 75° (ENE) 21:10:28 437.325/437.525
FUNcube-1 24 Jan 21:11:54 21:14:20 15° 266° (W) 21:16:46 145.935
UNISAT 6 24 Jan 21:21:37 21:25:35 29° 97° (E) 21:29:36 437.425
GONETS M04 24 Jan 21:26:35 21:30:33 14° 295° (WNW) 21:34:32
TIGRISAT 24 Jan 21:33:11 21:37:22 37° 98° (E) 21:41:37 435.000
AO-85 24 Jan 21:40:14 21:44:07 78° 61° (ENE) 21:48:04 145.980
ESTCUBE 1 24 Jan 21:41:17 21:44:30 20° 69° (ENE) 21:47:45 437.505/2401.250
ANTELSAT 24 Jan 21:49:30 21:53:59 62° 101° (E) 21:58:33 437.575/2403.000
DELFI C3 24 Jan 21:50:59 21:53:39 17° 266° (W) 21:56:19 145.870
CUBEBUG 1 24 Jan 22:04:06 22:07:14 19° 69° (ENE) 22:10:22 437.445
JAS-2 24 Jan 22:05:10 22:12:09 39° 97° (E) 22:19:19 435.910
PCSat 24 Jan 22:24:25 22:29:07 31° 108° (ESE) 22:33:52 145.827
BY70-1 24 Jan 22:26:11 22:29:06 46° 260° (W) 22:32:14 436.1900
NANOSAT C BR1 24 Jan 22:29:15 22:30:42 11° 93° (E) 22:32:08 145.865
AISAT 24 Jan 22:33:21 22:37:04 27° 71° (ENE) 22:40:47 437.250
PHONESAT 2.4 24 Jan 22:42:32 22:44:40 60° 153° (SSE) 22:46:51 2401.200-2431.200
SPROUT 24 Jan 22:56:45 23:00:32 32° 72° (ENE) 23:04:20 437.525
YUBILEINY 24 Jan 22:57:37 23:01:37 14° 65° (ENE) 23:05:35 435.215
UNISAT 6 24 Jan 22:58:40 23:02:05 21° 290° (WNW) 23:05:32 437.425
RS-15 24 Jan 23:04:54 23:16:38 70° 302° (WNW) 23:28:58 29.354- 29.394
VELOX 1 24 Jan 23:05:38 23:10:01 61° 75° (ENE) 23:14:24 145.980
BEESAT 3 24 Jan 23:09:12 23:12:15 20° 53° (NE) 23:15:17 437.485
UKube-1 24 Jan 23:10:45 23:14:03 22° 69° (ENE) 23:17:22 .
TIGRISAT 24 Jan 23:10:47 23:13:44 17° 291° (WNW) 23:16:43 435.000
ESTCUBE 1 24 Jan 23:17:00 23:21:03 32° 262° (W) 23:25:08 437.505/2401.250
DX 1 24 Jan 23:21:02 23:25:07 41° 73° (ENE) 23:29:13 434.975-435.025
QB50P1 24 Jan 23:22:23 23:26:35 61° 101° (E) 23:30:46 145.935-145.965
POLYITAN 1 24 Jan 23:28:11 23:32:26 73° 102° (ESE) 23:36:41 437.675
ANTELSAT 24 Jan 23:29:08 23:30:09 11° 294° (WNW) 23:31:10 437.575/2403.000
QB50P2 24 Jan 23:29:38 23:33:53 82° 102° (ESE) 23:38:09 145.880/145.840
50 SAT 24 Jan 23:38:52 23:42:24 63° 260° (W) 23:45:57 437.505
CUBEBUG 1 24 Jan 23:39:23 23:43:16 30° 262° (W) 23:47:09 437.445
Cosmos 2491 24 Jan 23:44:42 23:49:26 16° 79° (E) 23:54:09 435.465 / 435.565
POPSAT HIP 1 24 Jan 23:49:52 23:54:03 62° 285° (WNW) 23:58:14 437.405
JAS-2 24 Jan 23:50:07 23:56:58 40° 291° (WNW) 00:04:07 435.910
DUCHIFAT 1 24 Jan 23:54:07 23:58:17 64° 285° (WNW) 00:02:27 145.980
NANOSAT C BR1 25 Jan 00:02:33 00:06:35 45° 286° (WNW) 00:10:37 145.865
BEESAT 2 25 Jan 00:04:44 00:08:28 34° 57° (ENE) 00:12:09 435.950
TISAT 1 25 Jan 00:06:44 00:10:14 27° 71° (ENE) 00:13:44 437.305
BUGSAT 1 25 Jan 00:07:41 00:11:41 57° 100° (E) 00:15:43 437.445
PCSat 25 Jan 00:07:44 00:12:26 30° 303° (WNW) 00:17:09 145.827
AIST 1 25 Jan 00:08:53 00:13:05 58° 82° (E) 00:17:15
AISAT 25 Jan 00:09:59 00:13:26 22° 264° (W) 00:16:53 437.250
PHONESAT 2.4 25 Jan 00:16:45 00:18:29 20° 348° (NNW) 00:20:14 2401.200-2431.200
SPROUT 25 Jan 00:33:48 00:36:29 16° 266° (W) 00:39:10 437.525
Oscar 19 25 Jan 00:46:18 00:51:02 36° 98° (E) 00:55:44 437.125/150
UKube-1 25 Jan 00:46:18 00:49:55 26° 263° (W) 00:53:33 .
BEESAT 3 25 Jan 00:46:25 00:49:50 27° 248° (WSW) 00:53:13 437.485
Cosmos 2504 25 Jan 00:46:49 00:53:28 38° 77° (ENE) 01:00:00 435.465 / 435.565
YUBILEINY 25 Jan 00:50:52 00:59:43 83° 84° (E) 01:08:28 435.215
DX 1 25 Jan 00:59:10 01:01:25 14° 266° (W) 01:03:42 434.975-435.025
ITUPSAT 1 25 Jan 01:07:40 01:11:35 26° 69° (ENE) 01:15:31 437.325
CUSAT 1 25 Jan 01:12:06 01:16:04 21° 82° (E) 01:20:43 437.405
RS-15 25 Jan 01:23:23 01:31:58 21° 328° (NNW) 01:40:45 29.354- 29.394
Cosmos 2491 25 Jan 01:36:21 01:45:04 83° 277° (W) 01:53:50 435.465 / 435.565
BEESAT 25 Jan 01:37:53 01:42:33 57° 74° (ENE) 01:47:12 436.000
SWISSCUBE 25 Jan 01:40:01 01:44:43 69° 76° (ENE) 01:49:28 437.505
Gurwin Techsat 1B 25 Jan 01:41:35 01:46:54 69° 102° (ESE) 01:52:11 435.225
TISAT 1 25 Jan 01:42:49 01:45:48 19° 265° (W) 01:48:48 437.305
BEESAT 2 25 Jan 01:43:29 01:45:55 16° 251° (WSW) 01:48:21 435.950
ITAMSAT 1 25 Jan 01:43:33 01:44:48 11° 92° (E) 01:46:03 435.822/435.867
AO-7 25 Jan 01:46:46 01:49:41 12° 91° (E) 01:52:33 29.400- 29.500
PHONESAT 2.4 25 Jan 01:51:14 01:52:38 15° 4° (N) 01:54:01 2401.200-2431.200
MOZHAYETS 4 25 Jan 02:24:27 02:28:51 50° 74° (ENE) 02:33:18
Oscar 19 25 Jan 02:26:11 02:30:04 22° 293° (WNW) 02:33:57 437.125/150
ISS 25 Jan 02:27:04 02:29:45 23° 36° (NE) 02:32:25 145.825
KKS-1 25 Jan 02:27:52 02:30:32 16° 67° (ENE) 02:33:12 437.445
Cosmos 2504 25 Jan 02:40:30 02:46:34 30° 273° (W) 02:52:34 435.465 / 435.565
ITUPSAT 1 25 Jan 02:45:18 02:49:16 26° 263° (W) 02:53:17 437.325
AIST 2 25 Jan 02:48:53 02:52:53 38° 57° (ENE) 02:56:50 435.215
M-CUBED/EXP-1 PRIME 25 Jan 02:48:54 02:53:00 44° 70° (ENE) 02:56:51 437.505
YUBILEINY 25 Jan 02:50:29 02:55:17 16° 281° (W) 03:00:05 435.215
CUSAT 1 25 Jan 02:52:03 02:57:13 47° 285° (WNW) 03:03:49 437.405
DANDE 25 Jan 02:53:59 02:57:46 44° 91° (E) 03:02:49 436.750
STARS 25 Jan 03:05:54 03:08:52 18° 68° (ENE) 03:11:51 437.465
BEESAT 25 Jan 03:19:02 03:20:37 11° 268° (W) 03:22:11 436.000
ITAMSAT 1 25 Jan 03:19:28 03:24:40 71° 285° (WNW) 03:29:51 435.822/435.867
AUBIESAT-1 25 Jan 03:20:50 03:25:04 88° 74° (ENE) 03:29:02 437.475
Gurwin Techsat 1B 25 Jan 03:23:55 03:26:11 13° 297° (WNW) 03:28:27 435.225
PHONESAT 2.4 25 Jan 03:24:33 03:26:39 38° 20° (NNE) 03:28:45 2401.200-2431.200
CUBESAT XI-V 25 Jan 03:24:41 03:28:51 32° 71° (ENE) 03:33:02 437.345
AO-7 25 Jan 03:35:00 03:43:24 81° 107° (ESE) 03:51:44 29.400- 29.500
Cosmos 2491 25 Jan 03:39:22 03:43:11 13° 295° (WNW) 03:47:01 435.465 / 435.565
RS-15 25 Jan 03:47:16 03:51:51 12° 6° (N) 03:56:26 29.354- 29.394
KKS-1 25 Jan 04:02:35 04:06:44 39° 261° (W) 04:10:54 437.445
ISS 25 Jan 04:03:25 04:06:10 26° 230° (SW) 04:08:55 145.825
MOZHAYETS 4 25 Jan 04:04:26 04:06:15 12° 268° (W) 04:08:05
M-CUBED/EXP-1 PRIME 25 Jan 04:25:35 04:27:30 13° 260° (W) 04:29:21 437.505
AIST 2 25 Jan 04:28:30 04:30:59 15° 251° (WSW) 04:33:29 435.215
GOMX 1 25 Jan 04:34:22 04:37:09 17° 94° (E) 04:39:54 467.674
DANDE 25 Jan 04:38:58 04:41:11 13° 297° (WNW) 04:43:41 436.750
STARS 25 Jan 04:41:02 04:44:57 32° 262° (W) 04:48:52 437.465
